Ellensburg, WA
on Tuesday, January 22, 2013

Tuesday
Previous Day Next Day
Daily Summary
 ActualAverage (KYKM)Record (KYKM)
Temperature
Mean Temperature °F 32°F  
Max Temperature 23°F 40°F 55°F (1950)
Min Temperature 19°F 24°F -3°F (1969)
Degree Days
Heating Degree Days 44 33  
Month to date heating degree days 768  
Since 1 July heating degree days 3431  
Cooling Degree Days 0 0  
Month to date cooling degree days 0  
Year to date cooling degree days 0  
Moisture
Dew Point 17°F   
Average Humidity 81    
Maximum Humidity 93    
Minimum Humidity 74    
Precipitation
Precipitation 0.00 in 0.03 in 1.24 in (1970)
Month to date precipitation 0.86  
Year to date precipitation 0.86  
Snow
Snow 0.00 in 0.10 in 4.20 in (2012)
Month to date snowfall 4.2  
Year to date snowfall 4.2  
Since 1 July snowfall 17.2  
Snow Depth in   
Wind
Wind Speed 1 mph   
Max Wind Speed 5 mph   
Max Gust Speed mph   
Visibility 7 miles   
Events     

Key: T is trace of precipitation, MM is missing value
Source: NWS Daily Summary
Time(PST)TemperatureDew PointHumidity Pressure Visibility Wind DirectionWind SpeedGust SpeedPrecipitationEvents Conditions
12:32 AM 19.4°F 15.8°F 86% 30.28 in 2.0 miles Calm Calm - N/A   Overcast
12:53 AM 19.9°F 16.0°F 85% 30.37 in 2.0 miles Calm Calm - N/A   Overcast
1:08 AM 19.4°F 17.6°F 93% 30.29 in 3.0 miles Calm Calm - N/A   Overcast
1:42 AM 19.4°F 15.8°F 86% 30.30 in 2.5 miles Calm Calm - N/A   Overcast
1:49 AM 19.4°F 15.8°F 86% 30.30 in 3.0 miles Calm Calm - N/A   Overcast
1:53 AM 19.9°F 16.0°F 85% 30.38 in 3.0 miles Calm Calm - N/A   Overcast
2:02 AM 19.4°F 15.8°F 86% 30.30 in 2.5 miles Calm Calm - N/A   Overcast
2:20 AM 19.4°F 15.8°F 86% 30.29 in 4.0 miles Calm Calm - N/A   Overcast
2:53 AM 19.9°F 16.0°F 85% 30.37 in 4.0 miles North 3.5 mph - N/A   Overcast
3:53 AM 21.0°F 16.0°F 81% 30.36 in 4.0 miles North 4.6 mph - N/A   Haze
4:53 AM 21.0°F 16.0°F 81% 30.35 in 5.0 miles North 4.6 mph - N/A   Haze
5:53 AM 21.0°F 16.0°F 81% 30.33 in 7.0 miles Calm Calm - N/A   Overcast
6:53 AM 21.0°F 17.1°F 85% 30.33 in 8.0 miles Calm Calm - N/A   Overcast
7:53 AM 21.0°F 16.0°F 81% 30.35 in 9.0 miles Calm Calm - N/A   Overcast
8:53 AM 21.0°F 16.0°F 81% 30.34 in 7.0 miles Calm Calm - N/A   Overcast
9:53 AM 21.0°F 17.1°F 85% 30.34 in 7.0 miles Calm Calm - N/A   Overcast
10:53 AM 21.9°F 17.1°F 82% 30.35 in 7.0 miles Calm Calm - N/A   Overcast
11:53 AM 21.9°F 17.1°F 82% 30.34 in 10.0 miles Calm Calm - N/A   Overcast
12:53 PM 23.0°F 17.1°F 78% 30.31 in 10.0 miles Calm Calm - N/A   Overcast
1:53 PM 23.0°F 17.1°F 78% 30.29 in 10.0 miles Calm Calm - N/A   Overcast
2:35 PM 23.0°F 17.6°F 80% 30.21 in 10.0 miles Calm Calm - N/A   Overcast
2:53 PM 23.0°F 17.1°F 78% 30.28 in 10.0 miles Calm Calm - N/A   Overcast
3:10 PM 23.0°F 17.6°F 80% 30.21 in 10.0 miles Calm Calm - N/A   Overcast
3:53 PM 23.0°F 17.1°F 78% 30.28 in 10.0 miles Calm Calm - N/A   Overcast
4:53 PM 23.0°F 17.1°F 78% 30.27 in 10.0 miles East 3.5 mph - N/A   Overcast
5:53 PM 23.0°F 17.1°F 78% 30.27 in 10.0 miles ENE 3.5 mph - N/A   Overcast
6:53 PM 23.0°F 17.1°F 78% 30.25 in 10.0 miles ENE 3.5 mph - N/A   Overcast
7:53 PM 23.0°F 17.1°F 78% 30.25 in 10.0 miles Calm Calm - N/A   Overcast
8:53 PM 23.0°F 16.0°F 74% 30.24 in 10.0 miles Calm Calm - N/A   Overcast
9:53 PM 23.0°F 17.1°F 78% 30.24 in 10.0 miles Calm Calm - N/A   Overcast
10:44 PM 23.0°F 17.6°F 80% 30.14 in 10.0 miles Calm Calm - N/A   Overcast
10:53 PM 23.0°F 17.1°F 78% 30.22 in 10.0 miles Calm Calm - N/A   Overcast
11:51 PM 23.0°F 17.6°F 80% 30.14 in 10.0 miles Calm Calm - N/A   Overcast
11:53 PM 23.0°F 17.1°F 78% 30.22 in 10.0 miles Calm Calm - N/A   Overcast
Moon Phase
Jan. 22 Jan. 26 Feb. 03 Feb. 10 Feb. 17
Sunrise:07:37 AM (PST) Moon Rise:01:14 PM (PST)1/22
Sunset:04:50 PM (PST) Moon Set:04:06 AM (PST)1/22

Copyright © 2014 The Weather Underground, Inc.